COSMOS 249 DEB *, 3758

Orbit data source: Space-Track

COSMOS 249 DEB *, 3758 is space debris in LEO originally from a launch on Sun, 20 Oct 1968 UTC launched from the Tyuratam Missile And Space Complex (TTMTR). Debris objects in space refer to the collection of defunct objects orbiting the Earth. Examples of debris include non-operational satellites, rocket bodies, and fragments generated from explosions, collisions, or faulty payload assembly.

Loading next visibility...
Identifier
3758, 1968-091AV
Orbit
LEO
Country
Flag of CISCIS
Related business
Manufacturer
Unknown
Mission
Spacecraft
Bus & Motor
Unknown
Mass
Unknown
Launch date (UTC)
1968-10-20 (58 years ago)
Launch vehicle
Unknown
Launch site
Tyuratam Missile And Space Complex (TTMTR)
Object type
Payload
Rocket body
Debris
Shape & HBR
Unknown shape, 0.1 m
Radar Cross Section
Medium (>0.1 m² and <1 m²)

Expand to show TLE details & history
Last TLE update: 1 day ago

TLE from 1 day ago
0 COSMOS 249 DEB *
1 03758U 68091AV  26235.24775758 -.00000103  00000-0 -21822-4 0  9995
2 03758  62.2633 322.4546 0776989 118.5351 249.6089 12.82646169622499
Epoch: 2026-08-23T05:56Z
TLE epoch observation values (Epoch: 2026-08-23T05:56:46.254Z)
Latitude
-0.00001°
Longitude
-98.28467°
Altitude
1,580.375 km
Speed
6.964 km/s
True Right ascension
21h 29m 49s
True Declination
0° 00' 00"
Sunlit
Object was in full shadow at epoch
Visualization orbit readout
Latitude
Unknown
Longitude
Unknown
Altitude
Unknown
Speed
Unknown
Apparent Right ascension
Unknown
Apparent Declination
Unknown
Sunlit
N/A
Visualization observer readout
Local Sidereal Time
03:31:33
Azimuth
Unknown
Elevation
Unknown
Doppler factor
Unknown
Orbital elements
Apogee altitude
1,928.746 km
Perigee altitude
730.943 km
Semi-major axis
7,707.981 km
Eccentricity
0.0777
Inclination
62.2633°
RAAN
322.4546°
Arg. of periapsis
118.5351°
True anomaly
241.56312°
Mean anomaly
249.6089°
Eccentric anomaly
245.55611°
Mean motion
3.20725 °/min
Orbital period
112.25 mins
BSTAR
-0.000021822
Loading maneuver chart data...
Computing Atmospheric mass density...
Loading historical data...
Loading historical data...
Loading historical data...
Loading historical data...
Loading historical data...
Loading historical data...
Loading historical data...

Documentation

Showing up to 5 results
|